Location: Jericho Cemetery
(40.9483°N, 72.2119°W)
Time: 04:47:29
(UTC+00:00)

Daily predictions for brighter satellites

Satellite Brightness Start Highest point End
(mag) Time Altitude Azimuth Time Altitude Azimuth Time Altitude Azimuth
BREEZE-M DEB (TANK) 4.0 00:03:33 10° NW 00:05:32 19° NNE 00:08:28 10° ENE
Cosmos 1933 Rocket 4.3 00:03:06 10° SSW 00:07:25 58° W 00:11:47 10° N
Cosmos 1048 Rocket 4.0 00:03:34 10° NNW 00:08:42 68° ENE 00:13:52 10° SSE
Cosmos 2242 Rocket 4.5 00:05:43 10° NNE 00:09:39 30° ENE 00:13:33 10° SE
Cosmos 1733 Rocket 3.5 00:07:10 10° SSE 00:11:12 39° E 00:15:18 10° NNE
Resurs 01 Rocket 2.8 00:07:36 10° S 00:11:47 46° W 00:16:00 10° NNW
COSMOS 2428 4.5 00:12:25 10° SW 00:17:42 37° WNW 00:23:00 10° N
TSX-5 4.5 00:14:30 10° SSW 00:19:33 71° WNW 00:23:43 10° NNE
USA 32 4.3 00:15:11 10° SSE 00:20:10 48° E 00:25:11 10° NNE
CZ-4 R/B 1.7 00:19:45 10° SE 00:23:16 40° ENE 00:26:46 10° N
CSL-04 Debris 4.2 00:19:44 10° SSE 00:25:00 61° ENE 00:30:18 10° N
In-Cosmos 22 Rocket 4.4 00:20:15 10° NNW 00:25:32 73° W 00:30:51 10° S
OAO 3 Rocket 3.8 00:22:56 10° WSW 00:27:17 40° S 00:30:50 15° ESE
Cosmos 1821 Rocket 4.1 00:23:49 10° S 00:29:56 60° E 00:36:11 10° NNE
SL-08 R/B 4.3 00:27:10 10° NE 00:31:18 27° E 00:35:24 10° SSE
Cosmos 1125 Rocket 3.5 00:26:41 10° SSW 00:31:53 82° ESE 00:37:10 10° NNE
Cosmos 614 Rocket 4.1 00:27:23 10° NNW 00:32:28 57° ENE 00:37:05 12° SE
SL-16 R/B 2.7 00:29:20 10° SSE 00:34:24 35° ESE 00:39:29 10° NE
Cosmos 2218 Rocket 4.0 00:28:19 10° S 00:34:27 90° E 00:40:39 10° N
CZ-4B R/B 3.6 00:31:34 10° SSE 00:35:15 71° ENE 00:39:06 10° N
Meteor 2-15 4.4 00:32:31 10° S 00:38:35 89° E 00:44:42 10° N
ERS-1 Rocket 3.3 00:35:41 13° SE 00:39:56 46° ENE 00:44:43 10° N
USA 234 3.2 00:35:44 10° NE 00:42:14 65° SE 00:48:43 10° SW
USA 59 Rocket 0.1 00:40:10 10° NNW 00:43:41 56° NE 00:46:41 20° SE
Meteor 2-15 Rocket 4.4 00:39:33 10° S 00:45:34 73° E 00:51:40 10° NNE
Cosmos 468 4.5 00:41:04 10° NNW 00:46:20 82° ENE 00:51:05 13° SSE
OAO 2 Rocket 3.9 00:42:08 10° WSW 00:46:59 42° S 00:49:56 21° ESE
PAYLOAD B 4.2 00:45:24 12° SSE 00:50:21 65° ENE 00:55:48 10° N
Cosmos 1812 2.1 00:52:09 30° N 00:52:09 30° N 00:53:10 10° N
IRAS Rocket 4.4 00:48:56 10° S 00:54:24 76° WSW 00:59:54 10° NNW
SL-8 R/B 3.9 00:52:16 10° WSW 00:56:59 70° NNW 01:01:42 10° ENE
USA 238 DEB 4.3 00:49:53 10° NW 00:57:25 69° WSW 01:04:50 13° SSE
USA 238 4.3 00:50:03 10° NW 00:57:36 70° WSW 01:04:57 13° SSE
BREEZE-M DEB (TANK) 3.8 00:57:08 10° W 00:59:10 19° SW 01:00:00 16° SSW
Cosmos 1656 Rocket 3.8 00:53:54 10° NNW 00:59:18 57° ENE 01:02:31 24° SE
Helios 1A Rocket 2.9 00:56:23 10° N 00:59:33 58° WNW 01:02:40 10° SSW
Cosmos 1400 Rocket 3.3 00:58:49 10° SSW 01:02:19 54° W 01:05:53 10° N
Cosmos 1346 Rocket 2.9 00:59:22 10° N 01:02:51 45° ENE 01:03:48 36° ESE
Cosmos 2237 Rocket 3.8 00:57:38 10° SW 01:02:54 38° WNW 01:08:12 10° N
Geosat 4.1 00:58:33 10° NE 01:03:25 50° ESE 01:08:14 10° S
Spot 2 Rocket 4.1 01:02:36 26° ESE 01:04:43 37° ENE 01:09:19 10° N
Cosmos 2285 Rocket 4.1 00:58:54 10° S 01:05:02 52° ESE 01:11:10 10° NNE
Cosmos 44 3.3 01:03:25 10° SSW 01:08:24 88° ESE 01:13:41 10° NNE
Dummy Sat-02 4.5 01:08:48 35° SSE 01:10:05 61° E 01:13:38 10° N
Meteor 1-31 Rocket 3.9 01:08:26 10° SSW 01:11:43 37° W 01:15:01 10° NNW
HBTSS-SV1 4.4 01:07:34 10° WSW 01:12:00 76° S 01:13:56 33° E
SL-4 R/B 3.3 01:11:40 10° SSW 01:13:23 22° S 01:13:23 22° S
Feng Yun 1-1 Rocket 4.4 01:10:50 13° S 01:15:49 71° WSW 01:21:15 10° NNW
SPOT 5 4.4 01:12:23 10° SSW 01:16:27 31° W 01:20:23 10° NW
SKYMED 3 4.2 01:12:48 10° N 01:16:41 85° WNW 01:20:14 12° SSW
Okean-O 3.1 01:16:38 36° ESE 01:17:40 43° ENE 01:21:49 10° N
Cosmos 1674 Rocket 3.4 01:15:04 10° N 01:19:25 89° W 01:21:35 30° S
Cosmos 1869 3.8 01:21:05 34° ENE 01:21:05 34° ENE 01:23:42 10° NNE
Gbstr 26 Del rocket 3.6 01:16:49 10° SSW 01:21:57 42° SE 01:22:42 39° ESE
NOSS 2-1 (D) 3.5 01:18:31 10° NW 01:22:09 71° WSW 01:23:49 37° SSE
Cosmos 2150 Rocket 3.8 01:18:37 10° SSW 01:23:43 78° ESE 01:28:56 10° NNE
Cosmos 1908 Rocket 3.4 01:22:34 31° S 01:24:32 73° E 01:28:51 10° NNE
Okean O Rocket 1.7 01:26:16 46° ESE 01:27:11 57° ENE 01:31:26 10° N
Cosmos 2297 4.3 01:22:34 10° N 01:27:59 41° ENE 01:29:40 33° E
NOSS 2-1 (E) 3.3 01:25:41 10° NW 01:29:17 81° WSW 01:30:24 49° SSE
CZ-4B R/B 4.3 01:31:08 20° NE 01:31:08 20° NE 01:32:53 10° NNE
Terra 2.1 01:27:26 24° S 01:30:12 64° W 01:34:53 10° NNW
Cosmos 2369 Rocket 2.5 01:28:30 10° NNW 01:33:56 50° ENE 01:35:25 40° ESE
Cosmos 1782 Rocket 4.0 01:35:06 42° ENE 01:35:06 42° ENE 01:38:45 10° NNE
NOSS 2-1 (C) 3.7 01:31:22 10° NW 01:34:58 61° WSW 01:36:06 44° S
NOSS 3-1 (C) 4.4 01:31:42 10° NNW 01:38:41 52° NE 01:42:29 32° ESE
ADEOS 4.0 01:38:34 24° S 01:41:35 58° WSW 01:46:44 10° NNW
SPOT 3 Rocket 4.0 01:42:14 40° E 01:42:50 42° ENE 01:47:41 10° N
Cosmos 1943 3.3 01:45:42 49° SE 01:46:14 51° ESE 01:51:43 10° NNE
CZ-4B R/B 3.9 01:43:20 21° SSW 01:46:59 51° W 01:52:30 10° NNW
USA 245 4.0 01:47:24 51° E 01:47:44 52° ENE 01:52:55 10° N
ASTEX 1 3.4 01:47:29 42° S 01:49:08 77° W 01:54:04 10° N
Cosmos 1934 Rocket 3.9 01:46:12 24° S 01:50:12 90° W 01:56:26 10° N
Cosmos 1025 Rocket 3.9 01:46:43 10° NNW 01:50:47 45° W 01:52:18 31° SW
CZ-4 R/B 4.0 01:55:46 10° WSW 01:57:28 13° W 01:59:08 10° WNW
IRS-1C Rocket 4.4 02:01:13 50° ENE 02:01:21 50° ENE 02:06:27 10° N
Cosmos 1300 Rocket 3.6 02:02:59 66° WSW 02:03:15 68° W 02:07:31 10° N
Cosmos 2263 4.1 01:57:43 10° NNW 02:03:21 66° ENE 02:03:58 61° E
Cosmos 967 Rocket 4.4 02:05:45 10° NNW 02:12:14 82° ENE 02:13:16 64° SE
BREEZE-M DEB (TANK) 4.2 02:14:39 10° NW 02:16:11 32° NNW 02:16:11 32° NNW
Cosmos 2123 Rocket 4.5 02:11:37 10° NNW 02:17:45 57° W 02:20:10 36° SSW
SL-16 R/B 3.8 02:13:21 10° WSW 02:18:26 34° WNW 02:23:34 10° N
SJ 16-02 3.6 02:21:20 10° NNE 02:22:38 14° NE 02:22:38 14° NE
USA 234 4.3 02:18:57 10° NE 02:25:02 43° NNW 02:31:08 10° W
USA 59 Rocket 2.5 02:30:06 10° W 02:32:14 14° WSW 02:32:14 14° WSW
Ariane Rocket 3.2 02:36:30 68° NW 02:36:30 68° NW 02:40:55 10° NNW
CZ-4B R/B 3.8 02:37:09 58° WNW 02:37:09 58° WNW 02:41:12 10° NNW
NOSS 3-1 (A) 4.3 02:30:44 10° NNW 02:37:53 57° NE 02:39:40 48° E
Cosmos 1605 Rocket 4.1 02:37:05 55° SW 02:38:13 67° W 02:44:20 10° N
COSMOS 2455 3.2 02:41:26 10° NNW 02:46:57 53° NE 02:46:57 53° NE
Cosmos 1269 Rocket 4.4 02:42:04 10° NNW 02:46:31 61° NW 02:46:31 61° NW
Cosmos 921 Rocket 4.5 02:45:06 10° NNW 02:47:42 35° NNW 02:47:42 35° NNW
Cosmos 1975 Rocket 4.4 02:45:53 10° NNW 02:48:54 37° NW 02:48:54 37° NW
Cosmos 1140 Rocket 4.2 02:49:45 10° NNW 02:53:47 48° WNW 02:53:47 48° WNW
ATLAS 5 CENTAUR R/B 3.6 02:58:31 10° NNW 03:00:41 23° NNE 03:00:41 23° NNE
Okean O Rocket 4.2 03:03:31 12° W 03:03:41 12° W 03:05:30 10° WNW
Cosmos 407 Rocket 4.5 03:04:25 10° NNW 03:07:51 43° NNW 03:07:51 43° NNW
Cosmos 2100 Rocket 4.3 03:15:21 58° NNE 03:15:21 58° NNE 03:20:16 10° N
Cosmos 2369 Rocket 4.0 03:13:20 10° NW 03:17:11 22° W 03:17:11 22° W
BREEZE-M DEB (TANK) 4.4 03:21:37 10° NW 03:43:40 - ESE 03:24:44 55° N
SeaSat 1 4.1 03:41:04 30° N 03:41:04 30° N 03:43:43 10° NNW
ATLAS 2AS CENTAUR R/B 3.9 03:44:29 31° NE 03:44:29 31° NE 03:47:59 10° NE
SJ 16-02 4.1 03:58:21 10° NNW 03:59:08 15° NW 03:59:08 15° NW
Cosmos 1833 Rocket 4.3 04:23:20 30° NNE 04:23:20 30° NNE 04:26:06 10° NNE
ACS3 Solar Sail 3.7 04:42:58 10° NE 04:45:39 18° ENE 04:45:39 18° ENE
CZ-2C R/B 4.2 04:53:15 34° N 04:53:15 34° N 04:56:19 10° N
ATLAS 3B R/B 3.3 04:56:10 10° NNW 05:03:47 57° NE 05:03:47 57° NE
Cosmos 1697 Rocket 4.5 05:06:07 10° NNW 05:08:28 26° NW 05:08:28 26° NW
USA 229 DEB 4.2 05:20:43 10° NW 05:26:58 64° NW 05:26:58 64° NW
USA 229 4.2 05:20:46 10° NW 05:27:05 65° NW 05:27:05 65° NW
Cosmos 1980 Rocket 3.6 05:26:25 10° NNW 05:29:28 33° NNW 05:29:28 33° NNW
ATLAS 2AS CENTAUR R/B 3.8 05:31:52 33° NW 05:32:29 34° NW 05:38:38 10° NNE
Cosmos 2333 Rocket 4.0 05:56:00 10° N 06:00:48 27° NE 06:02:50 22° E
Cosmos 2082 Rocket 3.2 06:04:49 44° N 06:04:49 44° N 06:08:50 10° NNE
USA 281 3.9 06:11:57 40° ESE 06:13:49 50° ENE 06:20:07 10° NNW
Cosmos 2322 Rocket 4.3 06:09:53 10° N 06:14:19 23° NE 06:18:43 10° ESE
Resurs 1-4 Rocket 4.4 06:11:51 10° ENE 06:14:38 14° E 06:15:24 14° E
Cosmos 2279 Rocket 4.3 06:17:37 63° ENE 06:17:37 63° ENE 06:23:10 10° NNE
CZ-3 Stage 3 4.3 06:19:31 25° SE 06:19:31 25° SE 06:26:58 10° E
SL-16 R/B 2.8 06:24:20 10° NNW 06:29:52 51° ENE 06:30:09 51° ENE
ACS3 Solar Sail 2.2 06:24:12 10° N 06:29:12 53° NW 06:29:12 53° NW
NOSS 3-3 (A) 4.1 06:36:21 58° NNE 06:36:21 58° NNE 06:41:12 10° NNE
CZ-4C R/B 3.5 06:36:45 26° NNW 06:36:45 26° NNW 06:40:21 10° NNE
Cosmos 2266 Rocket 4.3 06:45:23 10° N 06:51:24 58° E 06:52:41 49° SE
NOSS 3-3 (C) 3.8 06:52:45 66° N 06:52:45 66° N 06:58:10 10° NNE
ATLAS 3B R/B 4.2 06:47:34 10° NW 06:50:58 24° WNW 06:50:58 24° WNW
Meteor 2-6 Rocket 4.3 06:55:39 70° NW 06:55:39 70° NW 07:01:01 10° N
USA 267 3.1 06:48:56 10° NE 06:55:30 73° SE 06:56:03 69° S
IDEFIX/ARIANE 42P 3.1 06:55:15 10° N 06:59:26 50° NNW 06:59:26 50° NNW
MOZ.5/SAFIR/RUBIN 5/SL-8 4.3 07:00:41 54° ENE 07:00:41 54° ENE 07:05:13 10° N
Envisat 3.8 06:56:30 10° NNE 07:01:18 42° E 07:01:47 41° ESE
Iridium 4 Rocket 4.1 07:01:35 44° E 07:01:47 45° E 07:06:29 10° NNE
Cosmos 1763 Rocket 3.4 07:12:59 84° N 07:12:59 84° N 07:18:08 10° NNE
ALOS 3.2 07:08:52 10° NNE 07:13:06 38° E 07:13:36 37° ESE
ADEOS II 3.4 07:12:07 10° NNE 07:16:51 34° E 07:18:54 25° SE
COSMOS 2406 4.2 07:20:34 32° WNW 07:20:46 32° WNW 07:25:55 10° N
BREEZE-M DEB (TANK) 3.6 07:19:20 47° SSW 07:20:59 57° SSE 07:25:02 10° ENE
CZ-2D R/B 2.5 07:21:38 10° NNE 07:26:51 59° ESE 07:28:19 43° SSE
USA 234 4.3 07:24:18 10° E 07:30:25 44° NNE 07:36:33 10° NW
CZ-3 R/B 4.2 06:48:06 10° WSW 07:30:45 54° S 07:41:59 10° ESE
Cosmos 2221 3.7 07:32:53 31° NW 07:32:53 31° NW 07:35:28 10° N
Cosmos 1354 Rocket 3.9 07:31:07 10° NNW 07:36:25 86° ENE 07:38:48 34° SSE
Cosmos 1503 Rocket 3.9 07:32:26 10° NNW 07:37:31 62° W 07:37:31 62° W
Cosmos 540 Rocket 3.6 07:40:24 54° W 07:40:45 55° WNW 07:45:49 10° N
FENGYUN 3A 4.4 07:37:34 10° N 07:42:26 35° WNW 07:42:44 34° WNW
Cosmos 2360 Rocket 2.0 07:37:33 10° NNW 07:43:15 82° WSW 07:47:31 18° SSE
BREEZE-M DEB (TANK) 3.8 07:42:24 21° NW 07:44:28 48° NNE 07:52:50 10° ESE
Cosmos 2333 Rocket 2.5 07:39:53 10° NW 07:44:45 44° W 07:44:45 44° W
USA 290 3.8 07:47:47 28° N 07:47:47 28° N 07:49:36 10° N
ADEOS Rocket 3.8 07:39:27 10° N 07:46:47 52° WNW 07:49:37 36° WSW
SL-4 R/B 2.3 07:45:50 34° NNW 07:47:16 59° NNE 07:51:00 10° ESE
Cosmos 468 Rocket 3.9 07:46:45 53° SSW 07:48:01 86° WNW 07:53:21 10° NNE
Cosmos 2082 Rocket 4.5 07:46:50 10° WNW 07:48:25 11° NW 07:50:02 10° NNW
Cosmos 1766 Rocket 3.9 07:45:53 10° N 07:50:11 63° E 07:52:29 26° SSE
Resurs 1-4 Rocket 2.0 07:49:35 10° N 07:54:52 70° WNW 07:56:27 45° SW
SL-19 R/B 4.4 07:52:36 10° NNE 07:58:21 87° ESE 08:01:36 29° SSW
Cosmos 2278 4.2 07:53:09 10° NW 07:58:15 38° WSW 07:58:15 38° WSW
USA 281 3.9 07:58:48 31° W 07:58:48 31° W 08:04:10 10° NW
Cosmos 2322 Rocket 2.2 07:53:11 10° NNW 07:58:40 55° WSW 08:01:23 29° S
Cosmos 1833 4.4 07:59:53 40° WSW 08:01:35 55° WNW 08:07:11 10° NNE
BREEZE-M DEB (TANK) 3.7 07:50:51 10° WNW 08:01:54 83° NNE 08:05:17 10° ESE
H-2A R/B 2.0 08:02:15 10° N 08:07:26 79° WNW 08:09:58 32° SSW
ISS -3.9 08:08:06 81° W 08:08:14 86° NW 08:11:37 10° NE
DNEPR-1 R/B 4.5 08:03:22 10° NNW 08:08:58 81° ENE 08:15:50 10° SE
Cosmos 2219 Rocket 2.1 08:06:42 10° NNW 08:12:21 78° WSW 08:17:59 10° SSE
SL-16 R/B 3.6 08:09:16 10° NW 08:11:55 20° WNW 08:11:55 20° WNW
Meteor 1-11 Rocket 4.2 08:11:22 10° NNW 08:16:47 40° W 08:18:50 30° SW
JB-3 3.9 08:15:11 28° S 08:16:59 82° W 08:20:35 10° NNW
Cosmos 1461 2.6 08:18:12 48° WSW 08:19:01 64° WNW 08:22:45 10° NNE
ARGOS 3.5 08:15:59 10° NNE 08:21:20 63° E 08:26:38 10° S
Meteor 2-11 Rocket 4.4 08:16:22 10° N 08:22:33 85° W 08:28:41 10° S
METEOR-M 4.0 08:17:55 10° NNE 08:23:16 82° WNW 08:27:08 19° SSW
H-2A R/B 3.1 08:26:13 29° W 08:26:13 29° W 08:28:56 10° NW
Gbstr 26 Del rocket 2.4 08:25:41 10° NW 08:29:24 81° SW 08:33:13 10° SE
Cosmos 2084 Rocket 3.5 08:25:47 10° NW 08:29:51 48° WSW 08:33:56 10° SSE
Cosmos 372 Rocket 3.8 08:25:58 10° NNW 08:31:07 71° WSW 08:36:10 10° S
Alouette 2 Rocket 3.5 08:28:39 10° NNW 08:32:13 41° W 08:33:25 30° SW
Cosmos 2322 4.4 08:27:42 10° NNW 08:33:20 58° ENE 08:38:56 10° SE
Cosmos 1238 Rocket 4.1 08:36:08 15° NW 08:36:08 15° NW 08:37:25 10° NNW
Cosmos 1151 Rocket 3.8 08:32:14 10° S 08:36:18 52° E 08:40:25 10° NNE
USA 267 4.1 08:32:12 10° NE 08:38:12 40° NNW 08:43:24 14° W
Cosmos 1842 Rocket 3.8 08:37:08 24° SW 08:39:25 48° W 08:43:36 10° N
Envisat 4.3 08:36:00 10° NNW 08:39:57 23° WNW 08:41:55 19° W
AQUA 3.7 08:38:08 10° NNE 08:42:50 82° WNW 08:47:23 11° SSW
Meteor 2-4 Rocket 4.2 08:40:31 21° SW 08:43:30 38° WNW 08:48:28 10° N
Aureole 1 Rocket 3.8 08:39:23 10° NW 08:43:37 39° WSW 08:48:47 10° S
USA 276 2.8 08:46:31 16° NNW 08:47:21 26° NNE 08:48:57 10° E
Cosmos 1066 Rocket 4.3 08:44:21 16° SSW 08:48:26 50° WNW 08:53:38 10° N
Cosmos 1758 3.4 08:45:46 10° N 08:49:23 66° E 08:52:58 10° SSE
SL-08 R/B 4.5 08:43:20 10° NNW 08:49:38 69° W 08:55:54 10° S
ALOS 3.7 08:46:22 10° NNW 08:49:46 21° WNW 08:51:38 17° W
Sich 1 2.8 08:49:39 10° NNW 08:53:47 65° W 08:57:51 10° S
ADEOS II 3.0 08:51:47 10° N 08:56:17 30° WNW 08:59:43 15° WSW
Okean 3 Rocket 3.6 08:52:53 10° NNW 08:57:18 64° W 09:01:43 10° S
NOSS 0 Rocket 4.4 08:53:52 10° NNW 09:00:02 65° ENE 09:06:07 10° SE
Cosmos 2297 Rocket 2.6 08:54:51 10° S 09:00:25 65° ESE 09:06:01 10° NNE
Cosmos 841 Rocket 4.1 08:58:30 15° SW 09:02:17 38° WNW 09:07:07 10° N
Cosmos 1743 Rocket 4.5 09:00:29 10° N 09:04:47 52° E 09:09:01 10° SSE
Cosmos 1805 Rocket 3.5 09:00:54 10° N 09:05:19 89° W 09:09:40 10° S
CZ-2D R/B 3.7 09:02:46 10° NNW 09:06:20 19° WNW 09:09:35 11° WSW
USA 307 4.4 09:05:10 10° SSE 09:06:45 15° ESE 09:08:39 10° E
NOSS 3-4 (A) 4.1 09:01:13 10° NW 09:08:01 49° WSW 09:15:52 10° S
NOSS 3-4 (C) 4.1 09:01:45 10° NW 09:08:35 50° WSW 09:16:27 10° S
Cosmos 1386 Rocket 4.5 09:04:34 10° NNW 09:10:37 63° W 09:16:46 10° S
ATLAS 5 CENTAUR R/B 4.3 09:05:36 13° WSW 09:10:44 64° NW 09:33:27 10° NE
S3M 4.0 09:05:22 10° S 09:11:43 85° W 09:18:04 10° N
H-2A R/B 2.2 09:08:30 10° N 09:12:20 45° WNW 09:16:06 10° SW
COSMOS 2428 2.7 09:06:49 10° NNW 09:12:33 78° WSW 09:18:12 10° SSE
USA 234 3.3 09:06:48 10° SE 09:13:14 62° SW 09:19:44 10° NW
Cosmos 1898 Rocket 3.9 09:08:41 10° NW 09:13:26 38° WSW 09:18:11 10° S
Cosmos 1937 Rocket 3.7 09:12:37 10° NNW 09:17:36 49° WSW 09:22:31 10° S
SL-16 R/B 2.7 09:11:38 10° S 09:17:43 55° W 09:23:52 10° NNW
Cosmos 1340 Rocket 3.5 09:14:08 10° N 09:17:50 54° ENE 09:21:32 10° SSE
Cosmos 158 Rocket 4.3 09:12:59 10° S 09:18:10 71° ESE 09:23:30 10° NNE
DELTA 2 R/B (1) 3.8 09:15:52 10° WSW 09:21:14 64° SSE 09:26:43 10° E
SL-4 R/B 3.1 09:21:31 10° W 09:24:21 20° SW 09:27:07 10° S
SL-14 R/B 4.5 09:23:42 10° SW 09:26:53 24° WNW 09:30:05 10° NNW
Meteor 2-10 Rocket 4.5 09:26:28 10° NW 09:30:43 27° W 09:35:06 10° SW
RESURS DK-1 3.2 09:27:01 10° NNW 09:30:56 55° ENE 09:34:48 10° SE
BREEZE-M DEB (TANK) 2.3 09:28:39 10° WNW 09:34:43 68° SW 09:37:17 10° SE
CZ-2C R/B 2.5 09:30:19 10° N 09:35:04 57° WNW 09:39:38 10° SSW
Cosmos 1939 Rocket 2.6 09:32:00 10° NNE 09:35:39 89° W 09:39:19 10° SSW
Meteor 1-13 Rocket 4.5 09:31:44 10° S 09:37:12 74° E 09:42:43 10° NNE
